Time,TemperatureF,DewpointF,PressureIn,WindDirection,WindDirectionDegrees,WindSpeedMPH,WindSpeedGustMPH,Humidity,HourlyPrecipIn,Conditions,Clouds,dailyrainin,SoftwareType,DateUTC
2013-06-28 00:00:00,74.6,69.8,29.89,North,355,1.0,4.0,85,0.00,,,0.00,Wunderground v.1.15,2013-06-28 05:00:00,
2013-06-28 00:10:00,74.2,69.4,29.89,North,355,2.0,2.0,85,0.00,,,0.00,Wunderground v.1.15,2013-06-28 05:10:00,
2013-06-28 00:15:00,73.9,69.1,29.89,North,355,1.0,4.0,85,0.00,,,0.00,Wunderground v.1.15,2013-06-28 05:15:00,
2013-06-28 00:20:00,73.5,69.1,29.89,North,355,0.0,4.0,86,0.00,,,0.00,Wunderground v.1.15,2013-06-28 05:20:00,
2013-06-28 00:25:00,73.3,69.2,29.89,North,355,0.0,4.0,87,0.00,,,0.00,Wunderground v.1.15,2013-06-28 05:25:00,
2013-06-28 00:30:00,73.0,68.9,29.88,North,355,1.0,4.0,87,0.00,,,0.00,Wunderground v.1.15,2013-06-28 05:30:00,
2013-06-28 00:35:00,72.8,69.0,29.89,North,355,2.0,5.0,88,0.00,,,0.00,Wunderground v.1.15,2013-06-28 05:35:00,
2013-06-28 00:40:00,72.6,68.8,29.89,North,355,4.0,5.0,88,0.00,,,0.00,Wunderground v.1.15,2013-06-28 05:40:00,
2013-06-28 00:45:00,72.4,68.6,29.88,North,355,5.0,5.0,88,0.00,,,0.00,Wunderground v.1.15,2013-06-28 05:45:00,
2013-06-28 00:50:00,72.3,68.5,29.88,North,355,5.0,5.0,88,0.00,,,0.00,Wunderground v.1.15,2013-06-28 05:50:00,
2013-06-28 00:55:00,72.2,68.4,29.88,North,355,4.0,6.0,88,0.00,,,0.00,Wunderground v.1.15,2013-06-28 05:55:00,
2013-06-28 01:05:00,72.1,68.3,29.88,North,355,5.0,6.0,88,0.00,,,0.00,Wunderground v.1.15,2013-06-28 06:05:00,
2013-06-28 01:15:00,72.2,68.1,29.88,NNW,344,5.0,6.0,87,0.00,,,0.00,Wunderground v.1.15,2013-06-28 06:15:00,
2013-06-28 01:20:00,72.5,68.4,29.88,NNW,336,6.0,6.0,87,0.00,,,0.00,Wunderground v.1.15,2013-06-28 06:20:00,
2013-06-28 01:25:00,72.7,68.3,29.88,NNW,329,6.0,7.0,86,0.00,,,0.00,Wunderground v.1.15,2013-06-28 06:25:00,
2013-06-28 01:30:00,72.6,67.8,29.87,NNW,333,6.0,6.0,85,0.00,,,0.00,Wunderground v.1.15,2013-06-28 06:30:00,
2013-06-28 01:40:00,72.3,67.5,29.87,NW,326,6.0,6.0,85,0.00,,,0.00,Wunderground v.1.15,2013-06-28 06:40:00,
2013-06-28 01:45:00,72.0,67.6,29.86,NW,324,6.0,6.0,86,0.00,,,0.00,Wunderground v.1.15,2013-06-28 06:45:00,
2013-06-28 01:50:00,71.9,67.5,29.86,NW,318,6.0,6.0,86,0.00,,,0.00,Wunderground v.1.15,2013-06-28 06:50:00,
2013-06-28 01:55:00,71.7,67.3,29.87,NW,320,6.0,6.0,86,0.00,,,0.00,Wunderground v.1.15,2013-06-28 06:55:00,
2013-06-28 02:00:00,71.5,67.4,29.87,NW,322,6.0,7.0,87,0.00,,,0.00,Wunderground v.1.15,2013-06-28 07:00:00,
2013-06-28 02:10:00,71.2,67.1,29.87,NW,324,6.0,6.0,87,0.00,,,0.00,Wunderground v.1.15,2013-06-28 07:10:00,
2013-06-28 02:20:00,71.0,67.3,29.87,NW,325,7.0,9.0,88,0.00,,,0.00,Wunderground v.1.15,2013-06-28 07:20:00,
2013-06-28 02:25:00,70.9,67.5,29.87,NW,321,8.0,9.0,89,0.00,,,0.00,Wunderground v.1.15,2013-06-28 07:25:00,
2013-06-28 02:30:00,70.8,67.4,29.87,NW,322,7.0,7.0,89,0.00,,,0.00,Wunderground v.1.15,2013-06-28 07:30:00,
2013-06-28 02:35:00,70.6,67.5,29.87,NW,325,7.0,7.0,90,0.00,,,0.00,Wunderground v.1.15,2013-06-28 07:35:00,
2013-06-28 02:45:00,70.5,67.4,29.87,NW,325,5.0,6.0,90,0.00,,,0.00,Wunderground v.1.15,2013-06-28 07:45:00,
2013-06-28 02:50:00,70.5,67.4,29.87,NW,326,5.0,6.0,90,0.00,,,0.00,Wunderground v.1.15,2013-06-28 07:50:00,
2013-06-28 02:55:00,70.4,67.3,29.87,NW,326,5.0,7.0,90,0.00,,,0.00,Wunderground v.1.15,2013-06-28 07:55:00,
2013-06-28 03:00:00,70.4,67.0,29.87,NNW,327,6.0,6.0,89,0.00,,,0.00,Wunderground v.1.15,2013-06-28 08:00:00,
2013-06-28 03:05:00,70.4,67.0,29.87,NNW,327,6.0,6.0,89,0.00,,,0.00,Wunderground v.1.15,2013-06-28 08:05:00,
2013-06-28 03:15:00,70.4,67.0,29.87,NNW,328,5.0,5.0,89,0.00,,,0.00,Wunderground v.1.15,2013-06-28 08:15:00,
2013-06-28 03:25:00,70.2,66.8,29.86,NNW,329,5.0,5.0,89,0.00,,,0.00,Wunderground v.1.15,2013-06-28 08:25:00,
2013-06-28 03:30:00,70.1,66.7,29.87,NNW,329,5.0,7.0,89,0.00,,,0.00,Wunderground v.1.15,2013-06-28 08:30:00,
2013-06-28 03:35:00,70.1,66.7,29.87,NNW,329,6.0,7.0,89,0.00,,,0.00,Wunderground v.1.15,2013-06-28 08:35:00,
2013-06-28 03:40:00,70.0,66.9,29.86,NNW,329,6.0,6.0,90,0.00,,,0.00,Wunderground v.1.15,2013-06-28 08:40:00,
2013-06-28 03:45:00,70.1,67.0,29.86,NNW,327,6.0,6.0,90,0.00,,,0.00,Wunderground v.1.15,2013-06-28 08:45:00,
2013-06-28 03:55:00,70.1,67.3,29.86,NW,325,6.0,6.0,91,0.00,,,0.00,Wunderground v.1.15,2013-06-28 08:55:00,
2013-06-28 04:00:00,70.2,67.4,29.86,NW,319,6.0,8.0,91,0.00,,,0.00,Wunderground v.1.15,2013-06-28 09:00:00,
2013-06-28 04:10:00,70.1,67.3,29.86,NW,321,7.0,8.0,91,0.00,,,0.00,Wunderground v.1.15,2013-06-28 09:10:00,
2013-06-28 04:15:00,70.0,67.3,29.86,NW,313,7.0,8.0,91,0.00,,,0.00,Wunderground v.1.15,2013-06-28 09:15:00,
2013-06-28 04:20:00,70.0,67.3,29.86,NW,317,7.0,7.0,91,0.00,,,0.00,Wunderground v.1.15,2013-06-28 09:20:00,
2013-06-28 04:25:00,69.9,67.2,29.86,NW,319,6.0,7.0,91,0.00,,,0.00,Wunderground v.1.15,2013-06-28 09:25:00,
2013-06-28 04:30:00,69.9,67.2,29.86,NW,318,6.0,6.0,91,0.00,,,0.00,Wunderground v.1.15,2013-06-28 09:30:00,
2013-06-28 04:35:00,70.0,67.3,29.86,NW,320,6.0,6.0,91,0.00,,,0.00,Wunderground v.1.15,2013-06-28 09:35:00,
2013-06-28 04:40:00,69.9,67.2,29.86,NW,320,6.0,7.0,91,0.00,,,0.00,Wunderground v.1.15,2013-06-28 09:40:00,
2013-06-28 04:45:00,69.9,67.2,29.86,NW,323,6.0,7.0,91,0.00,,,0.00,Wunderground v.1.15,2013-06-28 09:45:00,
2013-06-28 04:50:00,69.8,67.1,29.86,NNW,327,6.0,6.0,91,0.00,,,0.00,Wunderground v.1.15,2013-06-28 09:50:00,
2013-06-28 05:00:00,69.9,67.2,29.86,NNW,327,6.0,6.0,91,0.00,,,0.00,Wunderground v.1.15,2013-06-28 10:00:00,
2013-06-28 05:10:00,70.3,67.2,29.86,NW,310,5.0,6.0,90,0.00,,,0.00,Wunderground v.1.15,2013-06-28 10:10:00,
2013-06-28 05:15:00,70.4,67.3,29.86,NW,314,5.0,6.0,90,0.00,,,0.00,Wunderground v.1.15,2013-06-28 10:15:00,
2013-06-28 05:20:00,70.6,67.2,29.87,NW,313,6.0,6.0,89,0.00,,,0.00,Wunderground v.1.15,2013-06-28 10:20:00,
2013-06-28 05:25:00,70.6,67.2,29.87,NW,313,5.0,6.0,89,0.00,,,0.00,Wunderground v.1.15,2013-06-28 10:25:00,
2013-06-28 05:35:00,70.4,67.3,29.88,NW,325,7.0,9.0,90,0.00,,,0.00,Wunderground v.1.15,2013-06-28 10:35:00,
2013-06-28 05:40:00,70.5,67.4,29.89,NW,325,9.0,10.0,90,0.00,,,0.00,Wunderground v.1.15,2013-06-28 10:40:00,
2013-06-28 05:45:00,70.8,67.4,29.89,NNW,332,10.0,11.0,89,0.00,,,0.00,Wunderground v.1.15,2013-06-28 10:45:00,
2013-06-28 05:50:00,71.2,67.8,29.88,NW,318,11.0,11.0,89,0.00,,,0.00,Wunderground v.1.15,2013-06-28 10:50:00,
2013-06-28 05:55:00,71.4,67.7,29.88,NNW,331,10.0,11.0,88,0.00,,,0.00,Wunderground v.1.15,2013-06-28 10:55:00,
2013-06-28 06:05:00,71.6,67.9,29.89,NW,317,9.0,9.0,88,0.00,,,0.00,Wunderground v.1.15,2013-06-28 11:05:00,
2013-06-28 06:15:00,71.8,67.7,29.89,NNW,327,9.0,11.0,87,0.00,,,0.00,Wunderground v.1.15,2013-06-28 11:15:00,
2013-06-28 06:20:00,71.8,67.7,29.89,NW,326,9.0,9.0,87,0.00,,,0.00,Wunderground v.1.15,2013-06-28 11:20:00,
2013-06-28 06:25:00,71.8,67.7,29.89,NW,323,9.0,9.0,87,0.00,,,0.00,Wunderground v.1.15,2013-06-28 11:25:00,
2013-06-28 06:30:00,71.7,67.6,29.89,NNW,339,8.0,9.0,87,0.00,,,0.00,Wunderground v.1.15,2013-06-28 11:30:00,
2013-06-28 06:35:00,71.5,67.4,29.89,NNW,333,8.0,9.0,87,0.00,,,0.00,Wunderground v.1.15,2013-06-28 11:35:00,
2013-06-28 06:45:00,71.3,67.2,29.90,NW,322,7.0,8.0,87,0.00,,,0.00,Wunderground v.1.15,2013-06-28 11:45:00,
2013-06-28 06:50:00,71.3,67.6,29.90,NNW,327,7.0,7.0,88,0.00,,,0.00,Wunderground v.1.15,2013-06-28 11:50:00,
2013-06-28 06:55:00,71.3,67.6,29.90,NW,325,6.0,7.0,88,0.00,,,0.00,Wunderground v.1.15,2013-06-28 11:55:00,
2013-06-28 07:05:00,71.2,67.5,29.90,NW,313,6.0,6.0,88,0.00,,,0.00,Wunderground v.1.15,2013-06-28 12:05:00,
2013-06-28 07:10:00,71.1,67.4,29.90,NW,326,7.0,9.0,88,0.00,,,0.00,Wunderground v.1.15,2013-06-28 12:10:00,
2013-06-28 07:20:00,71.3,67.9,29.90,NW,325,7.0,10.0,89,0.00,,,0.00,Wunderground v.1.15,2013-06-28 12:20:00,
2013-06-28 07:25:00,71.4,67.7,29.90,NW,314,8.0,10.0,88,0.00,,,0.00,Wunderground v.1.15,2013-06-28 12:25:00,
2013-06-28 07:30:00,71.5,67.1,29.90,NW,323,8.0,8.0,86,0.00,,,0.00,Wunderground v.1.15,2013-06-28 12:30:00,
2013-06-28 07:35:00,71.4,67.0,29.91,NNW,332,8.0,10.0,86,0.00,,,0.00,Wunderground v.1.15,2013-06-28 12:35:00,
2013-06-28 07:40:00,71.6,67.5,29.90,NNW,334,8.0,9.0,87,0.00,,,0.00,Wunderground v.1.15,2013-06-28 12:40:00,
2013-06-28 07:50:00,72.2,67.8,29.91,NNW,327,9.0,9.0,86,0.00,,,0.00,Wunderground v.1.15,2013-06-28 12:50:00,
2013-06-28 07:55:00,72.4,68.0,29.91,NW,319,9.0,9.0,86,0.00,,,0.00,Wunderground v.1.15,2013-06-28 12:55:00,
2013-06-28 08:00:00,72.6,67.8,29.91,NNW,333,9.0,9.0,85,0.00,,,0.00,Wunderground v.1.15,2013-06-28 13:00:00,
2013-06-28 08:10:00,73.0,67.5,29.91,NNW,343,8.0,9.0,83,0.00,,,0.00,Wunderground v.1.15,2013-06-28 13:10:00,
2013-06-28 08:15:00,73.2,68.1,29.91,NNW,343,9.0,9.0,84,0.00,,,0.00,Wunderground v.1.15,2013-06-28 13:15:00,
2013-06-28 08:25:00,73.4,67.6,29.92,NNW,340,9.0,9.0,82,0.00,,,0.00,Wunderground v.1.15,2013-06-28 13:25:00,
2013-06-28 08:30:00,73.5,67.3,29.92,NW,325,8.0,8.0,81,0.00,,,0.00,Wunderground v.1.15,2013-06-28 13:30:00,
2013-06-28 08:35:00,73.8,68.0,29.92,NNW,334,8.0,8.0,82,0.00,,,0.00,Wunderground v.1.15,2013-06-28 13:35:00,
2013-06-28 08:40:00,74.0,67.4,29.92,NNW,341,8.0,9.0,80,0.00,,,0.00,Wunderground v.1.15,2013-06-28 13:40:00,
2013-06-28 08:45:00,74.3,67.0,29.92,NNW,333,9.0,10.0,78,0.00,,,0.00,Wunderground v.1.15,2013-06-28 13:45:00,
2013-06-28 08:50:00,74.6,66.5,29.92,NNW,331,10.0,10.0,76,0.00,,,0.00,Wunderground v.1.15,2013-06-28 13:50:00,
2013-06-28 09:00:00,75.2,65.9,29.92,NNW,342,9.0,9.0,73,0.00,,,0.00,Wunderground v.1.15,2013-06-28 14:00:00,
2013-06-28 09:10:00,75.7,64.8,29.92,North,350,8.0,8.0,69,0.00,,,0.00,Wunderground v.1.15,2013-06-28 14:10:00,
2013-06-28 09:15:00,75.9,65.0,29.92,NNW,348,9.0,9.0,69,0.00,,,0.00,Wunderground v.1.15,2013-06-28 14:15:00,
2013-06-28 09:20:00,76.2,65.3,29.92,NNW,332,9.0,10.0,69,0.00,,,0.00,Wunderground v.1.15,2013-06-28 14:20:00,
2013-06-28 09:25:00,76.4,65.5,29.92,NNW,340,9.0,10.0,69,0.00,,,0.00,Wunderground v.1.15,2013-06-28 14:25:00,
2013-06-28 09:35:00,76.8,65.4,29.92,NNW,338,9.0,10.0,68,0.00,,,0.00,Wunderground v.1.15,2013-06-28 14:35:00,
2013-06-28 09:40:00,77.1,64.0,29.92,North,350,9.0,9.0,64,0.00,,,0.00,Wunderground v.1.15,2013-06-28 14:40:00,
2013-06-28 09:45:00,77.2,65.4,29.92,North,5,8.0,9.0,67,0.00,,,0.00,Wunderground v.1.15,2013-06-28 14:45:00,
2013-06-28 09:50:00,77.3,64.2,29.92,NNW,330,8.0,8.0,64,0.00,,,0.00,Wunderground v.1.15,2013-06-28 14:50:00,
2013-06-28 09:55:00,77.3,65.9,29.92,NNW,333,8.0,8.0,68,0.00,,,0.00,Wunderground v.1.15,2013-06-28 14:55:00,
2013-06-28 10:05:00,77.5,63.5,29.92,NW,315,8.0,8.0,62,0.00,,,0.00,Wunderground v.1.15,2013-06-28 15:05:00,
2013-06-28 10:15:00,77.8,63.7,29.91,NNW,346,9.0,10.0,62,0.00,,,0.00,Wunderground v.1.15,2013-06-28 15:15:00,
2013-06-28 10:20:00,78.0,64.4,29.91,NNW,347,10.0,11.0,63,0.00,,,0.00,Wunderground v.1.15,2013-06-28 15:20:00,
2013-06-28 10:25:00,78.4,63.4,29.92,NNW,342,11.0,11.0,60,0.00,,,0.00,Wunderground v.1.15,2013-06-28 15:25:00,
2013-06-28 10:30:00,78.6,64.5,29.92,NNW,344,11.0,11.0,62,0.00,,,0.00,Wunderground v.1.15,2013-06-28 15:30:00,
2013-06-28 10:40:00,79.2,64.1,29.91,NNW,338,11.0,12.0,60,0.00,,,0.00,Wunderground v.1.15,2013-06-28 15:40:00,
2013-06-28 10:45:00,79.3,65.1,29.91,NW,319,11.0,17.0,62,0.00,,,0.00,Wunderground v.1.15,2013-06-28 15:45:00,
2013-06-28 10:50:00,79.4,63.8,29.91,NNW,343,12.0,12.0,59,0.00,,,0.00,Wunderground v.1.15,2013-06-28 15:50:00,
2013-06-28 10:55:00,79.5,63.9,29.92,NNW,331,13.0,13.0,59,0.00,,,0.00,Wunderground v.1.15,2013-06-28 15:55:00,
2013-06-28 11:05:00,79.8,65.2,29.92,North,350,12.0,12.0,61,0.00,,,0.00,Wunderground v.1.15,2013-06-28 16:05:00,
2013-06-28 11:15:00,80.1,64.0,29.92,NNW,342,12.0,20.0,58,0.00,,,0.00,Wunderground v.1.15,2013-06-28 16:15:00,
2013-06-28 11:20:00,80.3,63.7,29.92,NNW,333,13.0,15.0,57,0.00,,,0.00,Wunderground v.1.15,2013-06-28 16:20:00,
2013-06-28 11:25:00,80.4,62.2,29.91,NNW,343,15.0,17.0,54,0.00,,,0.00,Wunderground v.1.15,2013-06-28 16:25:00,
2013-06-28 11:30:00,80.6,61.3,29.91,North,350,17.0,20.0,52,0.00,,,0.00,Wunderground v.1.15,2013-06-28 16:30:00,
2013-06-28 11:35:00,80.7,59.8,29.91,NNW,338,18.0,20.0,49,0.00,,,0.00,Wunderground v.1.15,2013-06-28 16:35:00,
2013-06-28 11:40:00,81.1,61.8,29.91,NNW,335,17.0,17.0,52,0.00,,,0.00,Wunderground v.1.15,2013-06-28 16:40:00,
2013-06-28 11:50:00,81.2,61.4,29.91,NNW,333,15.0,19.0,51,0.00,,,0.00,Wunderground v.1.15,2013-06-28 16:50:00,
2013-06-28 11:55:00,81.3,60.3,29.91,NNW,342,16.0,19.0,49,0.00,,,0.00,Wunderground v.1.15,2013-06-28 16:55:00,
2013-06-28 12:05:00,81.5,59.3,29.91,North,350,18.0,21.0,47,0.00,,,0.00,Wunderground v.1.15,2013-06-28 17:05:00,
2013-06-28 12:10:00,81.6,60.0,29.91,NNE,22,18.0,18.0,48,0.00,,,0.00,Wunderground v.1.15,2013-06-28 17:10:00,
2013-06-28 12:15:00,82.0,61.5,29.91,NNW,343,15.0,18.0,50,0.00,,,0.00,Wunderground v.1.15,2013-06-28 17:15:00,
2013-06-28 12:25:00,81.9,61.4,29.91,NNW,338,17.0,17.0,50,0.00,,,0.00,Wunderground v.1.15,2013-06-28 17:25:00,
2013-06-28 12:30:00,82.3,60.6,29.91,NNW,339,15.0,15.0,48,0.00,,,0.00,Wunderground v.1.15,2013-06-28 17:30:00,
2013-06-28 12:35:00,82.2,60.6,29.91,NNW,338,15.0,21.0,48,0.00,,,0.00,Wunderground v.1.15,2013-06-28 17:35:00,
2013-06-28 12:40:00,82.3,61.2,29.91,NNW,336,17.0,17.0,49,0.00,,,0.00,Wunderground v.1.15,2013-06-28 17:40:00,
2013-06-28 12:45:00,82.4,62.5,29.92,NNW,330,16.0,17.0,51,0.00,,,0.00,Wunderground v.1.15,2013-06-28 17:45:00,
2013-06-28 12:55:00,82.5,62.0,29.91,NW,325,15.0,17.0,50,0.00,,,0.00,Wunderground v.1.15,2013-06-28 17:55:00,
2013-06-28 13:00:00,82.5,60.8,29.91,NNW,339,16.0,19.0,48,0.00,,,0.00,Wunderground v.1.15,2013-06-28 18:00:00,
2013-06-28 13:10:00,82.6,60.3,29.90,NW,318,16.0,17.0,47,0.00,,,0.00,Wunderground v.1.15,2013-06-28 18:10:00,
2013-06-28 13:15:00,82.6,58.5,29.90,NNW,333,16.0,18.0,44,0.00,,,0.00,Wunderground v.1.15,2013-06-28 18:15:00,
2013-06-28 13:20:00,82.5,58.4,29.90,NNW,340,17.0,17.0,44,0.00,,,0.00,Wunderground v.1.15,2013-06-28 18:20:00,
2013-06-28 13:30:00,83.0,58.8,29.90,North,355,16.0,21.0,44,0.00,,,0.00,Wunderground v.1.15,2013-06-28 18:30:00,
2013-06-28 13:35:00,82.9,58.1,29.90,NNW,342,17.0,21.0,43,0.00,,,0.00,Wunderground v.1.15,2013-06-28 18:35:00,
2013-06-28 13:40:00,82.9,58.7,29.90,NNW,342,18.0,18.0,44,0.00,,,0.00,Wunderground v.1.15,2013-06-28 18:40:00,
2013-06-28 13:45:00,83.2,60.3,29.90,NNW,346,15.0,18.0,46,0.00,,,0.00,Wunderground v.1.15,2013-06-28 18:45:00,
2013-06-28 13:50:00,83.3,59.7,29.89,North,355,15.0,16.0,45,0.00,,,0.00,Wunderground v.1.15,2013-06-28 18:50:00,
2013-06-28 14:00:00,82.9,60.6,29.89,NNW,336,15.0,16.0,47,0.00,,,0.00,Wunderground v.1.15,2013-06-28 19:00:00,
2013-06-28 14:05:00,82.9,60.0,29.89,NNW,340,16.0,16.0,46,0.00,,,0.00,Wunderground v.1.15,2013-06-28 19:05:00,
2013-06-28 14:10:00,83.0,60.7,29.89,NW,319,16.0,19.0,47,0.00,,,0.00,Wunderground v.1.15,2013-06-28 19:10:00,
2013-06-28 14:15:00,82.9,60.0,29.88,NNW,333,16.0,19.0,46,0.00,,,0.00,Wunderground v.1.15,2013-06-28 19:15:00,
2013-06-28 14:20:00,83.1,59.6,29.88,NW,324,16.0,16.0,45,0.00,,,0.00,Wunderground v.1.15,2013-06-28 19:20:00,
2013-06-28 14:25:00,83.2,59.0,29.88,NNW,339,17.0,17.0,44,0.00,,,0.00,Wunderground v.1.15,2013-06-28 19:25:00,
2013-06-28 14:30:00,83.2,57.7,29.88,NW,317,18.0,19.0,42,0.00,,,0.00,Wunderground v.1.15,2013-06-28 19:30:00,
2013-06-28 14:40:00,83.2,57.1,29.88,NNW,348,19.0,22.0,41,0.00,,,0.00,Wunderground v.1.15,2013-06-28 19:40:00,
2013-06-28 14:45:00,83.6,58.7,29.88,NW,325,20.0,22.0,43,0.00,,,0.00,Wunderground v.1.15,2013-06-28 19:45:00,
2013-06-28 14:50:00,83.8,59.6,29.88,NNW,342,17.0,17.0,44,0.00,,,0.00,Wunderground v.1.15,2013-06-28 19:50:00,
2013-06-28 14:55:00,83.8,56.9,29.87,NW,324,17.0,17.0,40,0.00,,,0.00,Wunderground v.1.15,2013-06-28 19:55:00,
2013-06-28 15:05:00,83.9,60.9,29.87,NNW,342,16.0,19.0,46,0.00,,,0.00,Wunderground v.1.15,2013-06-28 20:05:00,
2013-06-28 15:15:00,83.8,57.6,29.87,NNW,347,17.0,17.0,41,0.00,,,0.00,Wunderground v.1.15,2013-06-28 20:15:00,
2013-06-28 15:20:00,83.9,58.3,29.87,NNW,329,17.0,18.0,42,0.00,,,0.00,Wunderground v.1.15,2013-06-28 20:20:00,
2013-06-28 15:25:00,83.7,58.2,29.87,NNW,348,18.0,18.0,42,0.00,,,0.00,Wunderground v.1.15,2013-06-28 20:25:00,
2013-06-28 15:30:00,83.7,58.8,29.87,NW,325,17.0,18.0,43,0.00,,,0.00,Wunderground v.1.15,2013-06-28 20:30:00,
2013-06-28 15:35:00,83.7,58.2,29.87,NW,324,15.0,18.0,42,0.00,,,0.00,Wunderground v.1.15,2013-06-28 20:35:00,
2013-06-28 15:45:00,83.9,59.7,29.87,NNW,343,14.0,16.0,44,0.00,,,0.00,Wunderground v.1.15,2013-06-28 20:45:00,
2013-06-28 15:50:00,84.4,60.7,29.87,NNW,343,13.0,18.0,45,0.00,,,0.00,Wunderground v.1.15,2013-06-28 20:50:00,
2013-06-28 16:00:00,84.2,58.6,29.86,NNW,342,17.0,19.0,42,0.00,,,0.00,Wunderground v.1.15,2013-06-28 21:00:00,
2013-06-28 16:05:00,84.0,59.1,29.86,North,351,17.0,19.0,43,0.00,,,0.00,Wunderground v.1.15,2013-06-28 21:05:00,
2013-06-28 16:10:00,84.1,59.2,29.87,NW,326,16.0,18.0,43,0.00,,,0.00,Wunderground v.1.15,2013-06-28 21:10:00,
2013-06-28 16:20:00,83.9,59.0,29.86,NNW,348,18.0,21.0,43,0.00,,,0.00,Wunderground v.1.15,2013-06-28 21:20:00,
2013-06-28 16:25:00,84.0,57.8,29.86,NNW,331,16.0,21.0,41,0.00,,,0.00,Wunderground v.1.15,2013-06-28 21:25:00,
2013-06-28 16:30:00,84.2,58.6,29.86,NNW,343,16.0,16.0,42,0.00,,,0.00,Wunderground v.1.15,2013-06-28 21:30:00,
2013-06-28 16:35:00,84.2,58.6,29.85,NNW,340,17.0,17.0,42,0.00,,,0.00,Wunderground v.1.15,2013-06-28 21:35:00,
2013-06-28 16:40:00,84.1,59.2,29.85,NNW,341,16.0,16.0,43,0.00,,,0.00,Wunderground v.1.15,2013-06-28 21:40:00,
2013-06-28 16:50:00,84.2,56.6,29.85,NNW,346,16.0,22.0,39,0.00,,,0.00,Wunderground v.1.15,2013-06-28 21:50:00,
2013-06-28 17:05:00,84.2,57.9,29.85,NNW,341,19.0,19.0,41,0.00,,,0.00,Wunderground v.1.15,2013-06-28 22:05:00,
2013-06-28 17:10:00,84.5,59.5,29.85,NNW,342,17.0,18.0,43,0.00,,,0.00,Wunderground v.1.15,2013-06-28 22:10:00,
2013-06-28 17:20:00,84.3,56.6,29.85,NNW,332,18.0,19.0,39,0.00,,,0.00,Wunderground v.1.15,2013-06-28 22:20:00,
2013-06-28 17:25:00,84.2,57.3,29.85,NNW,346,18.0,21.0,40,0.00,,,0.00,Wunderground v.1.15,2013-06-28 22:25:00,
2013-06-28 17:35:00,84.1,57.2,29.85,NNW,344,18.0,19.0,40,0.00,,,0.00,Wunderground v.1.15,2013-06-28 22:35:00,
2013-06-28 17:40:00,83.9,56.3,29.85,NNW,343,18.0,18.0,39,0.00,,,0.00,Wunderground v.1.15,2013-06-28 22:40:00,
2013-06-28 17:45:00,83.9,59.7,29.85,NNW,346,17.0,18.0,44,0.00,,,0.00,Wunderground v.1.15,2013-06-28 22:45:00,
2013-06-28 17:50:00,83.8,58.3,29.85,NNW,343,16.0,16.0,42,0.00,,,0.00,Wunderground v.1.15,2013-06-28 22:50:00,
2013-06-28 17:55:00,83.8,57.6,29.85,NNW,332,17.0,17.0,41,0.00,,,0.00,Wunderground v.1.15,2013-06-28 22:55:00,
2013-06-28 18:00:00,83.8,58.9,29.84,North,355,18.0,18.0,43,0.00,,,0.00,Wunderground v.1.15,2013-06-28 23:00:00,
2013-06-28 18:05:00,83.7,58.8,29.84,NNW,333,17.0,18.0,43,0.00,,,0.00,Wunderground v.1.15,2013-06-28 23:05:00,
2013-06-28 18:10:00,83.6,59.4,29.84,North,349,16.0,16.0,44,0.00,,,0.00,Wunderground v.1.15,2013-06-28 23:10:00,
2013-06-28 18:15:00,83.8,58.3,29.84,NNW,332,15.0,20.0,42,0.00,,,0.00,Wunderground v.1.15,2013-06-28 23:15:00,
2013-06-28 18:25:00,83.3,60.4,29.84,NNW,328,16.0,26.0,46,0.00,,,0.00,Wunderground v.1.15,2013-06-28 23:25:00,
2013-06-28 18:30:00,83.4,60.4,29.84,NNW,344,14.0,26.0,46,0.00,,,0.00,Wunderground v.1.15,2013-06-28 23:30:00,
2013-06-28 18:35:00,83.4,60.4,29.84,NNW,338,15.0,26.0,46,0.00,,,0.00,Wunderground v.1.15,2013-06-28 23:35:00,
2013-06-28 18:40:00,83.1,59.6,29.83,NNW,338,16.0,16.0,45,0.00,,,0.00,Wunderground v.1.15,2013-06-28 23:40:00,
2013-06-28 18:45:00,83.1,58.9,29.83,NW,326,16.0,26.0,44,0.00,,,0.00,Wunderground v.1.15,2013-06-28 23:45:00,
2013-06-28 18:50:00,83.1,59.6,29.83,North,5,16.0,16.0,45,0.00,,,0.00,Wunderground v.1.15,2013-06-28 23:50:00,
2013-06-28 19:00:00,82.8,59.3,29.83,NNW,328,15.0,15.0,45,0.00,,,0.00,Wunderground v.1.15,2013-06-29 00:00:00,
2013-06-28 19:05:00,82.6,59.1,29.83,NNW,336,13.0,16.0,45,0.00,,,0.00,Wunderground v.1.15,2013-06-29 00:05:00,
2013-06-28 19:10:00,82.6,60.3,29.83,North,360,14.0,14.0,47,0.00,,,0.00,Wunderground v.1.15,2013-06-29 00:10:00,
2013-06-28 19:15:00,82.5,59.6,29.83,NNW,342,13.0,16.0,46,0.00,,,0.00,Wunderground v.1.15,2013-06-29 00:15:00,
2013-06-28 19:25:00,82.1,59.3,29.83,NNW,335,13.0,13.0,46,0.00,,,0.00,Wunderground v.1.15,2013-06-29 00:25:00,
2013-06-28 19:35:00,81.8,59.0,29.83,NNW,334,12.0,26.0,46,0.00,,,0.00,Wunderground v.1.15,2013-06-29 00:35:00,
2013-06-28 19:40:00,81.6,60.0,29.83,NNW,334,12.0,12.0,48,0.00,,,0.00,Wunderground v.1.15,2013-06-29 00:40:00,
2013-06-28 19:45:00,81.3,59.7,29.83,NNW,341,12.0,26.0,48,0.00,,,0.00,Wunderground v.1.15,2013-06-29 00:45:00,
2013-06-28 19:50:00,81.2,59.1,29.83,NNW,348,12.0,12.0,47,0.00,,,0.00,Wunderground v.1.15,2013-06-29 00:50:00,
2013-06-28 19:55:00,81.0,59.5,29.83,NNW,344,12.0,26.0,48,0.00,,,0.00,Wunderground v.1.15,2013-06-29 00:55:00,
2013-06-28 20:00:00,80.6,60.2,29.83,NNW,342,11.0,11.0,50,0.00,,,0.00,Wunderground v.1.15,2013-06-29 01:00:00,
2013-06-28 20:10:00,80.0,60.2,29.83,NNW,345,9.0,9.0,51,0.00,,,0.00,Wunderground v.1.15,2013-06-29 01:10:00,
2013-06-28 20:20:00,79.3,60.1,29.83,NNW,332,9.0,9.0,52,0.00,,,0.00,Wunderground v.1.15,2013-06-29 01:20:00,
2013-06-28 20:25:00,79.1,60.5,29.83,NNW,331,8.0,26.0,53,0.00,,,0.00,Wunderground v.1.15,2013-06-29 01:25:00,
2013-06-28 20:30:00,79.0,60.9,29.84,NNW,333,7.0,7.0,54,0.00,,,0.00,Wunderground v.1.15,2013-06-29 01:30:00,
2013-06-28 20:35:00,78.7,60.7,29.83,NNW,331,7.0,26.0,54,0.00,,,0.00,Wunderground v.1.15,2013-06-29 01:35:00,
2013-06-28 20:45:00,77.6,61.2,29.83,NNW,333,8.0,26.0,57,0.00,,,0.00,Wunderground v.1.15,2013-06-29 01:45:00,
2013-06-28 20:50:00,76.9,61.0,29.83,NNW,334,9.0,9.0,58,0.00,,,0.00,Wunderground v.1.15,2013-06-29 01:50:00,
2013-06-28 20:55:00,76.4,60.5,29.83,NW,325,9.0,26.0,58,0.00,,,0.00,Wunderground v.1.15,2013-06-29 01:55:00,
2013-06-28 21:05:00,76.1,60.2,29.83,NNW,329,8.0,26.0,58,0.00,,,0.00,Wunderground v.1.15,2013-06-29 02:05:00,
2013-06-28 21:10:00,76.0,60.2,29.83,NNW,328,7.0,26.0,58,0.00,,,0.00,Wunderground v.1.15,2013-06-29 02:10:00,
2013-06-28 21:20:00,75.8,60.4,29.83,NW,325,7.0,7.0,59,0.00,,,0.00,Wunderground v.1.15,2013-06-29 02:20:00,
2013-06-28 21:25:00,75.5,60.2,29.84,NW,325,6.0,26.0,59,0.00,,,0.00,Wunderground v.1.15,2013-06-29 02:25:00,
2013-06-28 21:30:00,75.3,60.5,29.84,NNW,328,6.0,26.0,60,0.00,,,0.00,Wunderground v.1.15,2013-06-29 02:30:00,
2013-06-28 21:35:00,75.0,60.2,29.84,NNW,329,6.0,26.0,60,0.00,,,0.00,Wunderground v.1.15,2013-06-29 02:35:00,
2013-06-28 21:40:00,74.8,60.0,29.84,NNW,328,6.0,26.0,60,0.00,,,0.00,Wunderground v.1.15,2013-06-29 02:40:00,
2013-06-28 21:50:00,74.6,59.8,29.84,NNW,330,6.0,26.0,60,0.00,,,0.00,Wunderground v.1.15,2013-06-29 02:50:00,
2013-06-28 21:55:00,74.3,60.0,29.84,NNW,330,6.0,26.0,61,0.00,,,0.00,Wunderground v.1.15,2013-06-29 02:55:00,
2013-06-28 22:00:00,74.2,59.9,29.84,NNW,328,6.0,26.0,61,0.00,,,0.00,Wunderground v.1.15,2013-06-29 03:00:00,
2013-06-28 22:10:00,73.9,59.6,29.84,NNW,327,6.0,26.0,61,0.00,,,0.00,Wunderground v.1.15,2013-06-29 03:10:00,
2013-06-28 22:15:00,73.5,59.7,29.84,NW,317,6.0,26.0,62,0.00,,,0.00,Wunderground v.1.15,2013-06-29 03:15:00,
2013-06-28 22:20:00,73.4,59.6,29.84,NW,316,6.0,26.0,62,0.00,,,0.00,Wunderground v.1.15,2013-06-29 03:20:00,
2013-06-28 22:25:00,73.1,59.8,29.85,NW,317,6.0,26.0,63,0.00,,,0.00,Wunderground v.1.15,2013-06-29 03:25:00,
2013-06-28 22:30:00,72.9,59.6,29.85,NW,322,6.0,26.0,63,0.00,,,0.00,Wunderground v.1.15,2013-06-29 03:30:00,
2013-06-28 22:35:00,72.6,59.7,29.85,NW,324,6.0,26.0,64,0.00,,,0.00,Wunderground v.1.15,2013-06-29 03:35:00,
2013-06-28 22:40:00,72.2,59.8,29.84,NW,325,6.0,26.0,65,0.00,,,0.00,Wunderground v.1.15,2013-06-29 03:40:00,
2013-06-28 22:45:00,71.8,59.8,29.84,NW,326,6.0,26.0,66,0.00,,,0.00,Wunderground v.1.15,2013-06-29 03:45:00,
2013-06-28 22:55:00,71.4,59.9,29.84,NW,325,6.0,26.0,67,0.00,,,0.00,Wunderground v.1.15,2013-06-29 03:55:00,
2013-06-28 23:05:00,71.1,60.0,29.84,NW,326,6.0,26.0,68,0.00,,,0.00,Wunderground v.1.15,2013-06-29 04:05:00,
2013-06-28 23:10:00,71.0,59.9,29.84,NNW,331,6.0,26.0,68,0.00,,,0.00,Wunderground v.1.15,2013-06-29 04:10:00,
2013-06-28 23:15:00,70.9,59.8,29.84,NW,325,6.0,26.0,68,0.00,,,0.00,Wunderground v.1.15,2013-06-29 04:15:00,
2013-06-28 23:20:00,70.8,59.7,29.84,NNW,327,6.0,26.0,68,0.00,,,0.00,Wunderground v.1.15,2013-06-29 04:20:00,
2013-06-28 23:25:00,70.5,59.4,29.84,NW,318,6.0,26.0,68,0.00,,,0.00,Wunderground v.1.15,2013-06-29 04:25:00,
2013-06-28 23:35:00,70.4,59.7,29.84,NW,322,7.0,26.0,69,0.00,,,0.00,Wunderground v.1.15,2013-06-29 04:35:00,
2013-06-28 23:40:00,70.3,59.6,29.84,NW,321,7.0,26.0,69,0.00,,,0.00,Wunderground v.1.15,2013-06-29 04:40:00,
2013-06-28 23:45:00,70.2,59.6,29.84,NNW,328,8.0,26.0,69,0.00,,,0.00,Wunderground v.1.15,2013-06-29 04:45:00,
2013-06-28 23:50:00,70.0,59.4,29.84,NW,319,7.0,26.0,69,0.00,,,0.00,Wunderground v.1.15,2013-06-29 04:50:00,
2013-06-28 23:55:00,69.8,59.6,29.84,NW,316,8.0,26.0,70,0.00,,,0.00,Wunderground v.1.15,2013-06-29 04:55:00,